| time (UTC) | temp F | wind direction | speed MPH | gust MPH | rain 1hr in | rain 24hr in | rain mn in | humidity % | barometer mb |
| 20260507060604 | 55 | 289 | 1.0 | 3.0 | 0.09 | 0.10 | 0.09 | 78 | 1009.2 |
| 20260507055605 | 57 | 290 | 2.0 | 7.0 | 0.08 | 0.09 | 0.08 | 76 | 1009.4 |
| 20260507055105 | 57 | 290 | 1.0 | 5.0 | 0.01 | 0.02 | 0.01 | 75 | 1009.8 |
| 20260507054605 | 57 | 265 | 1.0 | 3.0 | 0.00 | 0.01 | 0.00 | 74 | 1009.1 |
| 20260507054105 | 58 | 313 | 1.0 | 7.0 | 0.00 | 0.01 | 0.00 | 73 | 1008.9 |
| 20260507053604 | 58 | 233 | 1.0 | 3.0 | 0.00 | 0.01 | 0.00 | 73 | 1008.4 |
| 20260507053105 | 58 | 258 | 0.0 | 6.0 | 0.00 | 0.01 | 0.00 | 72 | 1008.8 |
| 20260507052604 | 58 | 335 | 1.0 | 3.0 | 0.00 | 0.01 | 0.00 | 72 | 1009.0 |
| 20260507052105 | 58 | 69 | 1.0 | 7.0 | 0.00 | 0.01 | 0.00 | 72 | 1008.8 |
| 20260507050604 | 59 | 307 | 0.0 | 6.0 | 0.00 | 0.01 | 0.00 | 72 | 1008.7 |
| 20260507045604 | 59 | 305 | 1.0 | 7.0 | 0.00 | 0.01 | 0.00 | 72 | 1008.0 |
| 20260507045105 | 59 | 299 | 1.0 | 5.0 | 0.00 | 0.01 | 0.00 | 72 | 1008.2 |
| 20260507044605 | 60 | 2 | 1.0 | 3.0 | 0.00 | 0.01 | 0.00 | 71 | 1008.2 |
| 20260507044105 | 60 | 332 | 2.0 | 6.0 | 0.00 | 0.01 | 0.00 | 72 | 1008.3 |
| 20260507043605 | 60 | 324 | 1.0 | 7.0 | 0.00 | 0.01 | 0.00 | 72 | 1008.4 |
| 20260507043105 | 62 | 316 | 1.0 | 6.0 | 0.00 | 0.01 | 0.00 | 72 | 1008.3 |
| 20260507042606 | 63 | 292 | 1.0 | 5.0 | 0.00 | 0.01 | 0.00 | 72 | 1008.1 |
| 20260507042105 | 64 | 5 | 2.0 | 6.0 | 0.00 | 0.01 | 0.00 | 75 | 1007.9 |
| 20260507041605 | 64 | 23 | 1.0 | 3.0 | 0.00 | 0.01 | 0.00 | 74 | 1008.0 |
| 20260507041106 | 65 | 328 | 1.0 | 3.0 | 0.00 | 0.01 | 0.00 | 74 | 1008.0 |
| 20260507040605 | 65 | 333 | 0.0 | 3.0 | 0.00 | 0.01 | 0.00 | 74 | 1007.9 |
| 20260507040105 | 65 | 311 | 1.0 | 3.0 | 0.00 | 0.01 | 0.00 | 74 | 1007.8 |
| 20260507035605 | 65 | 116 | 1.0 | 3.0 | 0.00 | 0.01 | 0.01 | 75 | 1007.8 |
| 20260507035105 | 66 | 159 | 3.0 | 9.0 | 0.00 | 0.01 | 0.01 | 76 | 1007.9 |
| 20260507034605 | 66 | 282 | 1.0 | 7.0 | 0.00 | 0.01 | 0.01 | 76 | 1008.0 |
| 20260507034105 | 66 | 178 | 1.0 | 7.0 | 0.00 | 0.01 | 0.01 | 76 | 1008.0 |
| 20260507033605 | 66 | 60 | 0.0 | 5.0 | 0.00 | 0.01 | 0.01 | 75 | 1008.1 |
| 20260507033105 | 66 | 48 | 0.0 | 2.0 | 0.00 | 0.01 | 0.01 | 75 | 1007.9 |
| 20260507032605 | 66 | 14 | 0.0 | 2.0 | 0.00 | 0.01 | 0.01 | 75 | 1007.7 |
| 20260507031105 | 66 | 151 | 0.0 | 2.0 | 0.00 | 0.01 | 0.01 | 75 | 1007.5 |
| 20260507030605 | 66 | 167 | 1.0 | 2.0 | 0.00 | 0.01 | 0.01 | 75 | 1007.4 |
| 20260507030105 | 66 | 152 | 0.0 | 2.0 | 0.00 | 0.01 | 0.01 | 75 | 1007.6 |
| 20260507025605 | 66 | 129 | 1.0 | 3.0 | 0.00 | 0.01 | 0.01 | 75 | 1007.8 |
| 20260507025105 | 66 | 115 | 1.0 | 3.0 | 0.00 | 0.01 | 0.01 | 75 | 1007.8 |
| 20260507024605 | 66 | 110 | 1.0 | 3.0 | 0.00 | 0.01 | 0.01 | 75 | 1007.8 |
| 20260507024105 | 66 | 304 | 0.0 | 2.0 | 0.00 | 0.01 | 0.01 | 75 | 1007.7 |
| 20260507022106 | 66 | 125 | 0.0 | 3.0 | 0.00 | 0.01 | 0.01 | 75 | 1007.8 |
| 20260507021606 | 66 | 126 | 0.0 | 2.0 | 0.00 | 0.01 | 0.01 | 75 | 1008.0 |
| 20260507021105 | 66 | 179 | 0.0 | 3.0 | 0.00 | 0.01 | 0.01 | 75 | 1007.9 |
| 20260507020605 | 66 | 182 | 1.0 | 5.0 | 0.00 | 0.01 | 0.01 | 75 | 1008.0 |
| 20260507014105 | 66 | 105 | 1.0 | 2.0 | 0.00 | 0.01 | 0.01 | 74 | 1007.8 |
| 20260507013605 | 66 | 131 | 1.0 | 3.0 | 0.00 | 0.01 | 0.01 | 74 | 1007.8 |
| 20260507012606 | 67 | 177 | 1.0 | 5.0 | 0.00 | 0.01 | 0.01 | 73 | 1007.8 |
| 20260507012105 | 67 | 159 | 1.0 | 3.0 | 0.00 | 0.01 | 0.01 | 73 | 1007.8 |
| 20260507011606 | 67 | 152 | 2.0 | 3.0 | 0.00 | 0.01 | 0.01 | 73 | 1007.9 |
| 20260507011105 | 67 | 213 | 0.0 | 3.0 | 0.00 | 0.01 | 0.01 | 73 | 1007.9 |
| 20260507010605 | 67 | 159 | 1.0 | 3.0 | 0.00 | 0.01 | 0.01 | 73 | 1007.9 |
| 20260507010105 | 67 | 134 | 0.0 | 2.0 | 0.00 | 0.01 | 0.01 | 73 | 1008.0 |
| 20260507005605 | 67 | 210 | 1.0 | 6.0 | 0.00 | 0.01 | 0.01 | 73 | 1008.1 |
| 20260507004605 | 67 | 215 | 1.0 | 3.0 | 0.00 | 0.01 | 0.01 | 73 | 1008.1 |
| 20260507004105 | 67 | 176 | 1.0 | 3.0 | 0.00 | 0.01 | 0.01 | 72 | 1007.7 |
| 20260507003605 | 67 | 212 | 0.0 | 2.0 | 0.00 | 0.01 | 0.01 | 72 | 1007.4 |
| 20260507003104 | 67 | 192 | 1.0 | 3.0 | 0.00 | 0.01 | 0.01 | 72 | 1007.3 |
| 20260507002606 | 67 | 110 | 0.0 | 2.0 | 0.00 | 0.01 | 0.01 | 72 | 1007.2 |
| 20260507002104 | 68 | 124 | 2.0 | 8.0 | 0.00 | 0.01 | 0.01 | 72 | 1007.3 |
| 20260507001105 | 68 | 194 | 1.0 | 3.0 | 0.00 | 0.01 | 0.01 | 71 | 1007.3 |
| 20260507000605 | 68 | 183 | 0.0 | 2.0 | 0.00 | 0.01 | 0.01 | 71 | 1007.3 |
| 20260507000104 | 68 | 157 | 1.0 | 3.0 | 0.00 | 0.01 | 0.01 | 71 | 1007.2 |
| 20260506235605 | 68 | 198 | 0.0 | 2.0 | 0.00 | 0.01 | 0.01 | 70 | 1007.3 |
| 20260506235104 | 68 | 10 | 1.0 | 2.0 | 0.00 | 0.01 | 0.01 | 70 | 1007.1 |
| 20260506234104 | 69 | 157 | 1.0 | 3.0 | 0.00 | 0.01 | 0.01 | 69 | 1007.1 |
| 20260506233605 | 69 | 188 | 1.0 | 3.0 | 0.00 | 0.01 | 0.01 | 69 | 1007.0 |
| 20260506232605 | 69 | 196 | 1.0 | 7.0 | 0.00 | 0.01 | 0.01 | 68 | 1007.1 |
| 20260506232104 | 69 | 139 | 2.0 | 5.0 | 0.00 | 0.01 | 0.01 | 68 | 1007.1 |
| 20260506231105 | 70 | 159 | 2.0 | 6.0 | 0.00 | 0.01 | 0.01 | 68 | 1007.0 |
| 20260506230605 | 70 | 126 | 3.0 | 8.0 | 0.00 | 0.01 | 0.01 | 68 | 1007.1 |
| 20260506230104 | 70 | 192 | 1.0 | 7.0 | 0.00 | 0.01 | 0.01 | 68 | 1007.2 |
| 20260506224604 | 70 | 195 | 2.0 | 6.0 | 0.00 | 0.01 | 0.01 | 68 | 1007.2 |
| 20260506224105 | 70 | 150 | 1.0 | 7.0 | 0.00 | 0.01 | 0.01 | 68 | 1006.9 |
| 20260506223605 | 70 | 202 | 1.0 | 2.0 | 0.00 | 0.01 | 0.01 | 68 | 1006.8 |
| 20260506223105 | 70 | 201 | 2.0 | 7.0 | 0.00 | 0.01 | 0.01 | 68 | 1006.9 |
| 20260506222105 | 70 | 148 | 2.0 | 6.0 | 0.00 | 0.01 | 0.01 | 67 | 1007.0 |
| 20260506221604 | 71 | 188 | 2.0 | 5.0 | 0.00 | 0.01 | 0.01 | 67 | 1006.9 |
| 20260506220604 | 71 | 154 | 2.0 | 7.0 | 0.00 | 0.01 | 0.01 | 66 | 1007.0 |
| 20260506220105 | 72 | 225 | 3.0 | 7.0 | 0.00 | 0.01 | 0.01 | 65 | 1006.9 |
| 20260506215604 | 72 | 256 | 2.0 | 6.0 | 0.00 | 0.01 | 0.01 | 65 | 1006.9 |
| 20260506215105 | 72 | 171 | 4.0 | 10.0 | 0.00 | 0.01 | 0.01 | 65 | 1006.9 |
| 20260506214605 | 72 | 225 | 3.0 | 10.0 | 0.00 | 0.01 | 0.01 | 65 | 1006.8 |
| 20260506214106 | 71 | 208 | 3.0 | 12.0 | 0.00 | 0.01 | 0.01 | 66 | 1006.9 |
| 20260506213604 | 71 | 155 | 3.0 | 9.0 | 0.00 | 0.01 | 0.01 | 66 | 1007.0 |
| 20260506213105 | 70 | 170 | 4.0 | 8.0 | 0.00 | 0.01 | 0.01 | 67 | 1006.8 |
| 20260506212604 | 70 | 209 | 2.0 | 7.0 | 0.00 | 0.01 | 0.01 | 67 | 1006.8 |
| 20260506212104 | 70 | 187 | 2.0 | 9.0 | 0.00 | 0.01 | 0.01 | 67 | 1006.8 |
| 20260506211605 | 70 | 189 | 3.0 | 8.0 | 0.00 | 0.01 | 0.01 | 67 | 1006.8 |
| 20260506210105 | 70 | 182 | 3.0 | 13.0 | 0.00 | 0.01 | 0.01 | 67 | 1006.6 |
| 20260506205605 | 70 | 181 | 2.0 | 10.0 | 0.00 | 0.01 | 0.01 | 67 | 1006.7 |
| 20260506205105 | 69 | 208 | 3.0 | 9.0 | 0.00 | 0.01 | 0.01 | 67 | 1006.5 |
| 20260506204605 | 69 | 198 | 2.0 | 10.0 | 0.00 | 0.01 | 0.01 | 67 | 1006.5 |
| 20260506204104 | 69 | 167 | 3.0 | 9.0 | 0.00 | 0.01 | 0.01 | 67 | 1006.5 |
| 20260506203605 | 69 | 183 | 5.0 | 12.0 | 0.00 | 0.01 | 0.01 | 67 | 1006.4 |
| 20260506203105 | 69 | 192 | 4.0 | 14.0 | 0.00 | 0.01 | 0.01 | 67 | 1006.5 |
| 20260506202604 | 69 | 181 | 3.0 | 8.0 | 0.00 | 0.01 | 0.01 | 68 | 1006.4 |
| 20260506202104 | 69 | 143 | 3.0 | 9.0 | 0.00 | 0.01 | 0.01 | 68 | 1006.4 |
| 20260506201605 | 69 | 185 | 3.0 | 12.0 | 0.00 | 0.01 | 0.01 | 68 | 1006.4 |
| 20260506201105 | 68 | 194 | 3.0 | 12.0 | 0.00 | 0.01 | 0.01 | 68 | 1006.5 |
| 20260506200605 | 69 | 125 | 3.0 | 12.0 | 0.00 | 0.01 | 0.01 | 69 | 1006.5 |
| 20260506200105 | 69 | 131 | 3.0 | 10.0 | 0.00 | 0.01 | 0.01 | 68 | 1006.6 |
| 20260506195605 | 69 | 173 | 2.0 | 7.0 | 0.00 | 0.01 | 0.01 | 69 | 1006.6 |
| 20260506195105 | 69 | 186 | 2.0 | 7.0 | 0.00 | 0.01 | 0.01 | 69 | 1006.7 |
| 20260506194606 | 68 | 262 | 2.0 | 5.0 | 0.00 | 0.01 | 0.01 | 70 | 1006.7 |
| 20260506193105 | 68 | 130 | 4.0 | 9.0 | 0.00 | 0.01 | 0.01 | 70 | 1007.0 |
| 20260506192605 | 67 | 179 | 3.0 | 12.0 | 0.00 | 0.01 | 0.01 | 70 | 1007.0 |
| 20260506192105 | 67 | 144 | 5.0 | 14.0 | 0.00 | 0.01 | 0.01 | 70 | 1007.0 |
| 20260506191605 | 67 | 126 | 4.0 | 9.0 | 0.00 | 0.01 | 0.01 | 70 | 1007.1 |
| 20260506191104 | 67 | 231 | 4.0 | 10.0 | 0.00 | 0.01 | 0.01 | 70 | 1007.0 |
| 20260506190105 | 67 | 194 | 2.0 | 7.0 | 0.00 | 0.01 | 0.01 | 71 | 1007.1 |
| 20260506185604 | 67 | 128 | 2.0 | 10.0 | 0.00 | 0.01 | 0.01 | 71 | 1007.1 |
| 20260506185105 | 67 | 119 | 3.0 | 12.0 | 0.00 | 0.01 | 0.01 | 71 | 1007.2 |
| 20260506184604 | 67 | 118 | 3.0 | 13.0 | 0.00 | 0.01 | 0.01 | 71 | 1007.2 |
| 20260506184105 | 67 | 150 | 2.0 | 13.0 | 0.00 | 0.01 | 0.01 | 71 | 1007.3 |
| 20260506183604 | 67 | 164 | 3.0 | 12.0 | 0.00 | 0.01 | 0.01 | 71 | 1007.4 |
| 20260506183104 | 66 | 88 | 2.0 | 10.0 | 0.00 | 0.01 | 0.01 | 71 | 1007.4 |
| 20260506182604 | 66 | 177 | 3.0 | 8.0 | 0.00 | 0.01 | 0.01 | 71 | 1007.4 |
| 20260506182105 | 66 | 157 | 4.0 | 12.0 | 0.00 | 0.01 | 0.01 | 71 | 1007.5 |
| 20260506181105 | 66 | 178 | 4.0 | 12.0 | 0.00 | 0.01 | 0.01 | 72 | 1007.5 |
| 20260506180605 | 67 | 169 | 3.0 | 9.0 | 0.00 | 0.01 | 0.01 | 71 | 1007.5 |
| 20260506180104 | 67 | 203 | 4.0 | 10.0 | 0.00 | 0.01 | 0.01 | 70 | 1007.6 |
| 20260506175605 | 67 | 158 | 3.0 | 8.0 | 0.00 | 0.01 | 0.01 | 69 | 1007.6 |
| 20260506175105 | 67 | 196 | 3.0 | 8.0 | 0.00 | 0.01 | 0.01 | 69 | 1007.6 |
| 20260506174604 | 67 | 172 | 3.0 | 8.0 | 0.00 | 0.01 | 0.01 | 69 | 1007.6 |
| 20260506174105 | 67 | 182 | 3.0 | 10.0 | 0.00 | 0.01 | 0.01 | 70 | 1007.7 |
| 20260506173605 | 67 | 142 | 1.0 | 10.0 | 0.00 | 0.01 | 0.01 | 70 | 1007.7 |
| 20260506173104 | 67 | 121 | 2.0 | 12.0 | 0.01 | 0.01 | 0.01 | 70 | 1007.7 |
| 20260506172605 | 67 | 139 | 3.0 | 9.0 | 0.01 | 0.01 | 0.01 | 70 | 1007.8 |
| 20260506172104 | 67 | 124 | 3.0 | 9.0 | 0.01 | 0.01 | 0.01 | 69 | 1007.9 |
| 20260506171104 | 68 | 164 | 3.0 | 7.0 | 0.01 | 0.01 | 0.01 | 69 | 1007.9 |
| 20260506170604 | 68 | 159 | 5.0 | 12.0 | 0.01 | 0.01 | 0.01 | 68 | 1007.9 |
| 20260506170104 | 68 | 174 | 2.0 | 8.0 | 0.01 | 0.01 | 0.01 | 70 | 1008.0 |
| 20260506165605 | 68 | 154 | 3.0 | 8.0 | 0.01 | 0.01 | 0.01 | 70 | 1008.1 |
| 20260506164604 | 68 | 114 | 2.0 | 6.0 | 0.01 | 0.01 | 0.01 | 71 | 1008.0 |
| 20260506164105 | 68 | 142 | 5.0 | 8.0 | 0.01 | 0.01 | 0.01 | 69 | 1008.1 |
| 20260506163605 | 68 | 161 | 3.0 | 9.0 | 0.01 | 0.01 | 0.01 | 70 | 1008.3 |
| 20260506163104 | 68 | 86 | 5.0 | 12.0 | 0.00 | 0.00 | 0.00 | 67 | 1008.4 |
| 20260506161105 | 69 | 100 | 2.0 | 5.0 | 0.00 | 0.00 | 0.00 | 65 | 1009.0 |
| 20260506160605 | 69 | 140 | 2.0 | 6.0 | 0.00 | 0.00 | 0.00 | 65 | 1009.0 |
| 20260506160105 | 69 | 203 | 3.0 | 7.0 | 0.00 | 0.00 | 0.00 | 64 | 1009.1 |
| 20260506155605 | 69 | 199 | 1.0 | 6.0 | 0.00 | 0.00 | 0.00 | 64 | 1009.1 |
| 20260506155105 | 69 | 166 | 2.0 | 5.0 | 0.00 | 0.00 | 0.00 | 63 | 1009.1 |
| 20260506154605 | 69 | 156 | 3.0 | 7.0 | 0.00 | 0.00 | 0.00 | 62 | 1009.1 |
| 20260506154105 | 69 | 157 | 2.0 | 9.0 | 0.00 | 0.00 | 0.00 | 63 | 1009.1 |
| 20260506153105 | 70 | 123 | 3.0 | 9.0 | 0.00 | 0.00 | 0.00 | 62 | 1009.0 |
| 20260506152605 | 70 | 143 | 2.0 | 7.0 | 0.00 | 0.00 | 0.00 | 61 | 1009.0 |
| 20260506152105 | 70 | 190 | 3.0 | 8.0 | 0.00 | 0.00 | 0.00 | 60 | 1009.1 |
| 20260506151605 | 70 | 152 | 2.0 | 12.0 | 0.00 | 0.00 | 0.00 | 60 | 1009.2 |
| 20260506151105 | 70 | 152 | 4.0 | 9.0 | 0.00 | 0.00 | 0.00 | 59 | 1009.1 |
| 20260506150605 | 70 | 122 | 2.0 | 5.0 | 0.00 | 0.00 | 0.00 | 59 | 1009.0 |
| 20260506150104 | 70 | 180 | 3.0 | 7.0 | 0.00 | 0.00 | 0.00 | 59 | 1009.0 |
| 20260506145605 | 70 | 143 | 3.0 | 9.0 | 0.00 | 0.00 | 0.00 | 59 | 1009.1 |
| 20260506145105 | 70 | 155 | 2.0 | 12.0 | 0.00 | 0.00 | 0.00 | 60 | 1009.2 |
| 20260506144105 | 69 | 145 | 2.0 | 10.0 | 0.00 | 0.00 | 0.00 | 60 | 1009.3 |
| 20260506143605 | 69 | 127 | 3.0 | 10.0 | 0.00 | 0.00 | 0.00 | 60 | 1009.3 |
| 20260506143104 | 69 | 201 | 2.0 | 12.0 | 0.00 | 0.00 | 0.00 | 60 | 1009.3 |
| 20260506142605 | 69 | 125 | 3.0 | 12.0 | 0.00 | 0.00 | 0.00 | 59 | 1009.2 |
| 20260506142105 | 69 | 153 | 3.0 | 6.0 | 0.00 | 0.00 | 0.00 | 59 | 1009.2 |
| 20260506141605 | 70 | 171 | 4.0 | 12.0 | 0.00 | 0.00 | 0.00 | 59 | 1009.3 |
| 20260506141104 | 70 | 159 | 5.0 | 12.0 | 0.00 | 0.00 | 0.00 | 58 | 1009.2 |
| 20260506140605 | 70 | 142 | 5.0 | 12.0 | 0.00 | 0.00 | 0.00 | 58 | 1009.4 |
| 20260506140105 | 70 | 122 | 3.0 | 10.0 | 0.00 | 0.00 | 0.00 | 58 | 1009.2 |
| 20260506135605 | 70 | 169 | 3.0 | 12.0 | 0.00 | 0.00 | 0.00 | 59 | 1009.0 |
| 20260506135105 | 69 | 124 | 3.0 | 6.0 | 0.00 | 0.00 | 0.00 | 60 | 1009.0 |
| 20260506134605 | 69 | 128 | 2.0 | 14.0 | 0.00 | 0.00 | 0.00 | 60 | 1009.0 |
| 20260506134105 | 69 | 169 | 2.0 | 9.0 | 0.00 | 0.00 | 0.00 | 60 | 1009.0 |
| 20260506133605 | 69 | 165 | 5.0 | 13.0 | 0.00 | 0.00 | 0.00 | 60 | 1009.0 |
| 20260506132605 | 69 | 110 | 3.0 | 8.0 | 0.00 | 0.00 | 0.00 | 60 | 1009.0 |
| 20260506132105 | 69 | 131 | 2.0 | 10.0 | 0.00 | 0.00 | 0.00 | 60 | 1009.1 |
| 20260506131605 | 69 | 108 | 2.0 | 7.0 | 0.00 | 0.00 | 0.00 | 60 | 1009.1 |
| 20260506131104 | 69 | 141 | 5.0 | 12.0 | 0.00 | 0.00 | 0.00 | 60 | 1009.2 |
| 20260506130604 | 69 | 225 | 2.0 | 14.0 | 0.00 | 0.00 | 0.00 | 60 | 1009.3 |
| 20260506130105 | 69 | 139 | 3.0 | 13.0 | 0.00 | 0.00 | 0.00 | 60 | 1009.4 |
| 20260506125604 | 69 | 179 | 5.0 | 9.0 | 0.00 | 0.00 | 0.00 | 59 | 1009.3 |
| 20260506125104 | 70 | 119 | 6.0 | 17.0 | 0.00 | 0.00 | 0.00 | 59 | 1009.4 |
| 20260506124605 | 69 | 141 | 2.0 | 12.0 | 0.00 | 0.00 | 0.00 | 61 | 1009.3 |
| 20260506124105 | 69 | 112 | 4.0 | 12.0 | 0.00 | 0.00 | 0.00 | 61 | 1009.3 |
| 20260506123604 | 69 | 153 | 2.0 | 5.0 | 0.00 | 0.00 | 0.00 | 62 | 1009.3 |
| 20260506123104 | 68 | 284 | 3.0 | 12.0 | 0.00 | 0.00 | 0.00 | 62 | 1009.3 |
| 20260506122605 | 68 | 206 | 3.0 | 10.0 | 0.00 | 0.00 | 0.00 | 63 | 1009.2 |
| 20260506122105 | 68 | 101 | 5.0 | 12.0 | 0.00 | 0.00 | 0.00 | 64 | 1009.2 |
| 20260506121605 | 67 | 135 | 2.0 | 6.0 | 0.00 | 0.00 | 0.00 | 64 | 1009.4 |
| 20260506121105 | 67 | 125 | 1.0 | 7.0 | 0.00 | 0.00 | 0.00 | 65 | 1009.2 |
| 20260506120606 | 66 | 171 | 4.0 | 13.0 | 0.00 | 0.00 | 0.00 | 66 | 1009.3 |
| 20260506120104 | 66 | 123 | 4.0 | 12.0 | 0.00 | 0.00 | 0.00 | 66 | 1009.3 |
| 20260506115605 | 66 | 99 | 2.0 | 12.0 | 0.00 | 0.00 | 0.00 | 66 | 1009.4 |
| 20260506115105 | 66 | 344 | 3.0 | 7.0 | 0.00 | 0.00 | 0.00 | 66 | 1009.4 |
| 20260506114104 | 65 | 120 | 3.0 | 12.0 | 0.00 | 0.00 | 0.00 | 67 | 1009.4 |
| 20260506113604 | 65 | 159 | 2.0 | 8.0 | 0.00 | 0.00 | 0.00 | 67 | 1009.4 |
| 20260506113105 | 65 | 148 | 3.0 | 12.0 | 0.00 | 0.00 | 0.00 | 67 | 1009.3 |
| 20260506112605 | 65 | 119 | 3.0 | 14.0 | 0.00 | 0.00 | 0.00 | 67 | 1009.3 |
| 20260506111605 | 65 | 150 | 5.0 | 14.0 | 0.00 | 0.00 | 0.00 | 67 | 1009.3 |
| 20260506111104 | 65 | 130 | 5.0 | 14.0 | 0.00 | 0.00 | 0.00 | 68 | 1009.3 |
| 20260506110605 | 64 | 125 | 4.0 | 14.0 | 0.00 | 0.00 | 0.00 | 68 | 1009.3 |
| 20260506110105 | 64 | 124 | 4.0 | 9.0 | 0.00 | 0.00 | 0.00 | 68 | 1009.4 |
| 20260506105105 | 64 | 118 | 3.0 | 10.0 | 0.00 | 0.00 | 0.00 | 69 | 1009.3 |
| 20260506103105 | 63 | 120 | 2.0 | 10.0 | 0.00 | 0.00 | 0.00 | 70 | 1009.3 |
| 20260506102605 | 63 | 148 | 2.0 | 9.0 | 0.00 | 0.00 | 0.00 | 70 | 1009.4 |
| 20260506102105 | 63 | 144 | 3.0 | 12.0 | 0.00 | 0.00 | 0.00 | 70 | 1009.4 |
| 20260506101605 | 63 | 95 | 2.0 | 8.0 | 0.00 | 0.00 | 0.00 | 70 | 1009.5 |
| 20260506100605 | 63 | 126 | 2.0 | 8.0 | 0.00 | 0.00 | 0.00 | 70 | 1009.4 |
| 20260506100105 | 64 | 135 | 2.0 | 7.0 | 0.00 | 0.00 | 0.00 | 71 | 1009.3 |
| 20260506095604 | 64 | 137 | 4.0 | 12.0 | 0.00 | 0.00 | 0.00 | 71 | 1009.3 |
| 20260506095104 | 64 | 159 | 3.0 | 7.0 | 0.00 | 0.00 | 0.00 | 71 | 1009.2 |
| 20260506094105 | 64 | 98 | 3.0 | 9.0 | 0.00 | 0.00 | 0.00 | 71 | 1009.1 |
| 20260506093604 | 64 | 124 | 3.0 | 8.0 | 0.00 | 0.00 | 0.00 | 71 | 1009.1 |
| 20260506093105 | 64 | 116 | 2.0 | 7.0 | 0.00 | 0.00 | 0.00 | 71 | 1009.1 |
| 20260506092605 | 64 | 117 | 2.0 | 8.0 | 0.00 | 0.00 | 0.00 | 71 | 1009.1 |
| 20260506091604 | 64 | 119 | 2.0 | 12.0 | 0.00 | 0.00 | 0.00 | 71 | 1009.1 |
| 20260506091105 | 64 | 112 | 2.0 | 8.0 | 0.00 | 0.00 | 0.00 | 70 | 1009.2 |
| 20260506085605 | 64 | 137 | 3.0 | 10.0 | 0.00 | 0.00 | 0.00 | 70 | 1009.3 |
| 20260506085105 | 64 | 117 | 2.0 | 12.0 | 0.00 | 0.00 | 0.00 | 70 | 1009.3 |
| 20260506084604 | 64 | 177 | 3.0 | 8.0 | 0.00 | 0.00 | 0.00 | 70 | 1009.3 |
| 20260506084104 | 64 | 137 | 2.0 | 7.0 | 0.00 | 0.00 | 0.00 | 70 | 1009.3 |
| 20260506083604 | 65 | 123 | 1.0 | 12.0 | 0.00 | 0.00 | 0.00 | 70 | 1009.4 |
| 20260506083104 | 65 | 116 | 3.0 | 12.0 | 0.00 | 0.00 | 0.00 | 70 | 1009.5 |
| 20260506082605 | 65 | 124 | 2.0 | 8.0 | 0.00 | 0.00 | 0.00 | 70 | 1009.6 |
| 20260506081604 | 65 | 125 | 2.0 | 7.0 | 0.00 | 0.00 | 0.00 | 71 | 1009.6 |
| 20260506081104 | 65 | 71 | 1.0 | 6.0 | 0.00 | 0.00 | 0.00 | 70 | 1009.7 |
| 20260506080604 | 65 | 142 | 2.0 | 6.0 | 0.00 | 0.00 | 0.00 | 70 | 1009.6 |
| 20260506080106 | 65 | 137 | 2.0 | 12.0 | 0.00 | 0.00 | 0.00 | 70 | 1009.6 |
| 20260506073104 | 65 | 128 | 2.0 | 6.0 | 0.00 | 0.00 | 0.00 | 70 | 1009.5 |
| 20260506072605 | 65 | 119 | 2.0 | 7.0 | 0.00 | 0.00 | 0.00 | 70 | 1009.5 |
| 20260506072105 | 65 | 131 | 2.0 | 9.0 | 0.00 | 0.00 | 0.00 | 69 | 1009.5 |
| 20260506071605 | 66 | 153 | 2.0 | 8.0 | 0.00 | 0.00 | 0.00 | 69 | 1009.5 |
| 20260506071105 | 65 | 167 | 2.0 | 8.0 | 0.00 | 0.00 | 0.00 | 69 | 1009.6 |
| 20260506070604 | 66 | 125 | 2.0 | 9.0 | 0.00 | 0.00 | 0.00 | 69 | 1009.5 |
| 20260506070104 | 66 | 86 | 2.0 | 9.0 | 0.00 | 0.00 | 0.00 | 69 | 1009.5 |
| 20260506062104 | 66 | 305 | 3.0 | 8.0 | 0.00 | 0.00 | 0.00 | 69 | 1009.7 |
| 20260506061105 | 66 | 137 | 3.0 | 7.0 | 0.00 | 0.00 | 0.00 | 69 | 1009.6 |